This demonstration page uses our WeatherBlox Daily Observations layout. Learn more.

Left ArrowRight Arrow

39.29038, -76.61219

Hourly Observations for February 15, 2021

Temp ( °F °C ) Dew Point ( °F °C ) Humidity (%) Winds ( mph kmh ) Pressure ( in mb ) Visibility ( mi km ) Precip ( " mm )
12:54 am 00:54 Cloudy with Light Rain 35 1.7 27 -2.8 72 72 N 5 7 30.19 1022 8 13 0.00 0.00
1:54 am 01:54 Cloudy 35 1.7 27 -2.8 72 72 N 6 9 30.19 1022 9 14 0.00 0.00
2:54 am 02:54 Cloudy 35 1.7 27 -2.8 72 72 N 6 9 30.18 1022 10 16 N/A
3:54 am 03:54 Cloudy 35 1.7 28 -2.2 76 76 N 5 7 30.17 1022 10 16 0.02 0.51
4:54 am 04:54 Cloudy 35 1.7 27 -2.8 72 72 NE 6 9 30.16 1022 10 16 N/A
5:54 am 05:54 Cloudy 35 1.7 27 -2.8 72 72 NNE 5 7 30.17 1022 10 16 N/A
6:54 am 06:54 Cloudy 35 1.7 26 -3.3 70 70 VRB 6 9 30.18 1022 10 16 N/A
7:54 am 07:54 Cloudy 36 2.2 27 -2.8 70 70 NE 8 13 30.19 1022 10 16 N/A
8:54 am 08:54 Cloudy 36 2.2 26 -3.3 67 67 N 6 9 30.21 1023 10 16 N/A
9:54 am 09:54 Cloudy 37 2.8 27 -2.8 67 67 NNE 7 11 30.20 1023 10 16 N/A
10:54 am 10:54 Cloudy 37 2.8 27 -2.8 67 67 NE 3 6 30.20 1023 10 16 N/A
11:54 am 11:54 Cloudy 38 3.3 28 -2.2 68 68 NE 5 7 30.19 1022 10 16 N/A
12:54 pm 12:54 Cloudy 38 3.3 30 -1.1 73 73 E 8 13 30.14 1021 10 16 N/A
1:54 pm 13:54 Cloudy 39 3.9 31 -0.6 73 73 ENE 8 13 30.12 1020 9 14 N/A
2:54 pm 14:54 Cloudy 38 3.3 30 -1.1 73 73 E 7 11 30.11 1020 9 14 N/A
3:54 pm 15:54 Cloudy 37 2.8 31 -0.6 79 79 NE 3 6 30.12 1020 8 13 N/A
4:09 pm 16:09 Cloudy with Haze 37 2.8 31 -0.6 79 79 VRB 5 7 30.13 1020 6 10 N/A
4:29 pm 16:29 Cloudy with Haze 37 2.8 32 undefined 82 82 NE 6 9 30.13 1020 2 3 N/A
4:38 pm 16:38 Cloudy with Drizzle 36 2.2 32 undefined 86 86 ENE 6 9 30.12 1020 2 2 0.00 0.00
4:54 pm 16:54 Cloudy with Drizzle 36 2.2 33 0.6 89 89 ENE 6 9 30.10 1019 2 2 0.00 0.00
5:54 pm 17:54 Cloudy with Drizzle 36 2.2 33 0.6 89 89 NE 9 15 30.07 1018 2 3 0.00 0.00
6:54 pm 18:54 Cloudy with Drizzle 36 2.2 33 0.6 89 89 ENE 7 11 30.06 1018 2 2 0.00 0.00
7:54 pm 19:54 Cloudy with Drizzle 36 2.2 33 0.6 89 89 E 13 20 30.03 1017 2 3 0.00 0.00
8:54 pm 20:54 Cloudy with Drizzle 35 1.7 33 0.6 93 93 E 13 20 30.00 1016 2 3 0.00 0.00
9:54 pm 21:54 Cloudy with Drizzle 35 1.7 33 0.6 93 93 ENE 10 17 29.95 1014 2 2 0.01 0.25
10:54 pm 22:54 Cloudy with Rain 35 1.7 33 0.6 93 93 ENE 7 11 29.92 1013 2 2 0.06 1.52
11:21 pm 23:21 Cloudy with Heavy Rain 35 1.7 33 0.6 93 93 NE 9 15 29.89 1012 2 3 0.15 3.81
11:33 pm 23:33 Cloudy with Heavy Rain 35 1.7 33 0.6 93 93 WSW 5 7 29.93 1014 1 2 0.22 5.59
11:49 pm 23:49 Cloudy with Light Rain 36 2 34 1 93 93 E 8 13 29.87 1011 3 5 0.36 9.14
11:50 pm 23:50 Cloudy with Light Rain 35 1.7 33 0.6 93 93 E 8 13 29.86 1011 3 5 0.37 9.40
11:59 pm 23:59 Cloudy with Light Rain 35 1.7 33 0.6 93 93 ENE 8 13 29.86 1011 2 3 0.01 0.25

Powered by AerisWeather